[Iaude] MPEC V106: 2016 VO4 [a=1.48,e=0.58,i=6.6,H=24.8]

mpec at si.edu mpec at si.edu
Fri Nov 11 10:41:59 EST 2016


M.P.E.C. 2016-V106                               Issued 2016 Nov. 11, 15:38 UT
 
     The Minor Planet Electronic Circulars contain information on unusual
         minor planets and routine data on comets.  They are published
    on behalf of Division F of the International Astronomical Union by the
          Minor Planet Center, Smithsonian Astrophysical Observatory,
                          Cambridge, MA 02138, U.S.A.

             Prepared using the Tamkin Foundation Computer Network

                              MPC at CFA.HARVARD.EDU
            URL http://www.minorplanetcenter.net/    ISSN 1523-6714


                                   2016 VO4
 
Observations:
     K16V04O* C2016 11 09.17152 01 48 28.97 +36 50 07.8          20.9 VqEV106G96
     K16V04O  C2016 11 09.17811 01 48 31.59 +36 48 44.6          20.4 VqEV106G96
     K16V04O  C2016 11 09.18242 01 48 33.35 +36 47 49.6          20.4 VqEV106G96
     K16V04O  C2016 11 09.18671 01 48 35.03 +36 46 55.9          20.5 VqEV106G96
     K16V04O  C2016 11 09.22487 01 48 49.89 +36 38 57.7          20.5 VqEV106G96
     K16V04O  C2016 11 09.22528 01 48 50.05 +36 38 52.5          20.8 VqEV106G96
     K16V04O  C2016 11 09.22569 01 48 50.19 +36 38 47.8          20.2 VqEV106G96
     K16V04O  C2016 11 09.22610 01 48 50.34 +36 38 43.0          20.3 VqEV106G96
     K16V04O  C2016 11 09.25020501 48 59.19 +36 33 38.0          20.8 VtEV106H01
     K16V04O  C2016 11 09.25729901 49 01.92 +36 32 08.9          20.6 VtEV106H01
     K16V04O  C2016 11 09.26606101 49 05.27 +36 30 19.0          20.7 VtEV106H01
     K16V04O  C2016 11 09.27118701 49 07.22 +36 29 15.2          20.8 VtEV106H01
     K16V04O  C2016 11 10.11492 01 54 34.05 +33 47 48.2          20.5 VqEV106G96
     K16V04O  C2016 11 10.11588 01 54 34.26 +33 47 38.7          21.0 VqEV106G96
     K16V04O  C2016 11 10.11705 01 54 34.70 +33 47 26.9          22.0 VqEV106G96
     K16V04O  C2016 11 10.11839 01 54 35.07 +33 47 13.1          20.8 VqEV106G96
     K16V04O  C2016 11 10.16987 01 54 50.72 +33 38 23.0          20.6 RoEV106926
     K16V04O  C2016 11 10.17336 01 54 51.78 +33 37 46.7          20.4 RoEV106926
     K16V04O  C2016 11 10.17684 01 54 52.79 +33 37 11.0          20.8 RoEV106926
     K16V04O ^C2016 11 11.21049 01 59 54.95 +30 54 09.6          20.8 RoEV106695
     K16V04O ^C2016 11 11.21522 01 59 56.02 +30 53 28.6          20.8 RoEV106695
     K16V04O ^C2016 11 11.21995 01 59 57.07 +30 52 48.8          20.5 RoEV106695
     K16V04O  C2016 11 11.23640 02 00 00.67 +30 50 29.2          19.7 RoEV106926
     K16V04O  C2016 11 11.24012 02 00 01.46 +30 49 57.7          19.8 RoEV106926
     K16V04O  C2016 11 11.24381 02 00 02.28 +30 49 26.4          19.8 RoEV106926
 
Observer details:
695 Kitt Peak.  Observer T. H. Bressi.  2.3-m f/9 reflector + CCD.
926 Tenagra II Observatory.  Observers M. Schwartz, P. R. Holvorcem.  Measurer
    M. Schwartz.  0.81-m f/7 Ritchey-Chretien + CCD.
G96 Mt. Lemmon Survey.  Observer R. G. Matheny.  Measurers E. J. Christensen,
    D. C. Fuls, A. R. Gibbs, A. D. Grauer, J. A. Johnson, R. A. Kowalski,
    S. M. Larson, G. J. Leonard, R. G. Matheny, R. L. Seaman, F. C. Shelly.
    1.5-m reflector + 10K CCD.
H01 Magdalena Ridge Observatory, Socorro.  Observers W. H. Ryan, E. V. Ryan.
    Measurer W. H. Ryan.  2.4-m f/8.9 reflector + CCD.
 
Orbital elements:
2016 VO4                                                 Earth MOID = 0.0437 AU
Epoch 2016 July 31.0 TT = JDT 2457600.5                 MPC
M 336.77574              (2000.0)            P               Q
n   0.54623929     Peri.   66.92106     +0.62755441     +0.77195961
a   1.4821111      Node   242.34312     -0.74961464     +0.56393986
e   0.5753813      Incl.    6.56460     -0.21036482     +0.29334314
P   1.80           H   24.8           G   0.15           U   8
Residuals in seconds of arc
161109 G96  0.1-  0.7+    161109 H01  0.1+  0.0     161110 926  0.2-  0.5-
161109 G96  0.1-  0.2+    161109 H01  0.1-  0.1-    161111 695  0.2+  0.1+
161109 G96  0.6+  0.7-    161109 H01  0.2-  0.3+    161111 695  0.3+  0.5-
161109 G96  0.4+  0.5-    161110 G96  0.4+  0.1-    161111 695  0.2+  0.0
161109 G96  0.0   0.3-    161110 G96  0.7-  0.3+    161111 926  0.2+  0.1-
161109 G96  0.1+  0.4-    161110 G96  0.3+  0.6+    161111 926  0.3-  0.2+
161109 G96  0.2-  0.1+    161110 G96  0.3-  0.6+    161111 926  0.3-  0.4+
161109 G96  0.3-  0.4+    161110 926  0.2-  0.3-
161109 H01  0.0   0.2+    161110 926  0.1+  0.7-

Ephemeris:
2016 VO4                 a,e,i = 1.48, 0.58, 7                   q = 0.6293
Date    TT    R. A. (2000) Decl.     Delta      r     Elong.  Phase     V
2016 10 12    14 43 17.1 +02 01 16   0.2338  0.7927    25.2   147.6    29.1
...
2016 10 27    15 17 08.5 +24 36 23   0.07912 0.9358    41.2   135.6    25.5
...
2016 11 04    23 18 33.0 +67 43 42   0.04695 1.0152   118.8    58.9    20.3
...
2016 11 10    01 53 49.4 +34 08 34   0.09082 1.0746   157.3    20.9    20.8
2016 11 11    01 58 57.3 +31 25 02   0.1002  1.0844   159.4    18.7    20.9
2016 11 12    02 03 01.4 +29 08 51   0.1099  1.0942   161.0    17.1    21.1
...
2016 11 18    02 16 50.9 +21 00 48   0.1715  1.1526   161.8    15.5    22.1
...
2016 11 26    02 25 46.7 +16 24 22   0.2605  1.2287   155.5    19.5    23.3
...
2016 12 11    02 38 08.4 +13 28 09   0.4459  1.3646   142.2    26.3    24.9

A. U. Tomatic                (C) Copyright 2016 MPC           M.P.E.C. 2016-V106




More information about the Iaude mailing list